• In Germany
  • List of Countries
  • For 7 days
  • Water Temperature
  • Satellite Maps
  • Weather Map
  • Weather Widgets
  • user-avatar
    Login

    Hourly Weather Baranovichi

    Today, 23 June, Friday

    Time Temperature Precipitation Wind Pressure Humidity
    00:00 +13°C° 0 mm 2 mps 741 mmHg 82%
    01:00 +12°C° 0 mm 1 mps 741 mmHg 86%
    02:00 +11°C° 0 mm 1 mps 740 mmHg 93%
    03:00 +11°C° 0 mm 1 mps 740 mmHg 91%
    04:00 +11°C° 0 mm 1 mps 740 mmHg 89%
    05:00 +12°C° 0 mm 1 mps 740 mmHg 88%
    06:00 +14°C° 0 mm 1 mps 739 mmHg 78%
    07:00 +18°C° 0 mm 1 mps 739 mmHg 68%
    08:00 +20°C° 0 mm 1 mps 739 mmHg 59%
    09:00 +21°C° 0 mm 1 mps 739 mmHg 56%
    10:00 +22°C° 0 mm 1 mps 738 mmHg 54%
    11:00 +23°C° 0 mm 1 mps 738 mmHg 51%
    12:00 +22°C° 0.1 mm 1 mps 738 mmHg 57%
    13:00 +22°C° 0.1 mm 1 mps 738 mmHg 63%
    14:00 +21°C° 0.1 mm 1 mps 738 mmHg 68%
    15:00 +21°C° 0.1 mm 1 mps 738 mmHg 66%
    16:00 +22°C° 0.1 mm 1 mps 738 mmHg 65%
    17:00 +22°C° 0.1 mm 1 mps 738 mmHg 63%
    18:00 +21°C° 0 mm 1 mps 738 mmHg 70%
    19:00 +20°C° 0 mm 1 mps 738 mmHg 77%
    20:00 +18°C° 0 mm 1 mps 738 mmHg 83%
    21:00 +16°C° 0 mm 1 mps 739 mmHg 87%
    22:00 +15°C° 0 mm 1 mps 739 mmHg 91%
    23:00 +14°C° 0 mm 1 mps 739 mmHg 94%

    Tomorrow, 24 June, Saturday

    Time Temperature Precipitation Wind Pressure Humidity
    00:00 +13°C° 0 mm 1 mps 739 mmHg 95%
    01:00 +13°C° 0 mm 1 mps 739 mmHg 95%
    02:00 +12°C° 0 mm 1 mps 739 mmHg 95%
    03:00 +13°C° 0.4 mm 1 mps 739 mmHg 95%
    04:00 +14°C° 0.4 mm 1 mps 739 mmHg 96%
    05:00 +14°C° 0.4 mm 1 mps 739 mmHg 96%
    06:00 +15°C° 1.5 mm 1 mps 739 mmHg 96%
    07:00 +15°C° 1.5 mm 1 mps 739 mmHg 97%
    08:00 +16°C° 1.5 mm 1 mps 739 mmHg 97%
    09:00 +18°C° 0.4 mm 1 mps 740 mmHg 95%
    10:00 +17°C° 0.4 mm 2 mps 740 mmHg 93%
    11:00 +18°C° 0.4 mm 2 mps 740 mmHg 91%
    12:00 +18°C° 0.3 mm 3 mps 740 mmHg 91%
    13:00 +18°C° 0.3 mm 3 mps 740 mmHg 92%
    14:00 +17°C° 0.3 mm 4 mps 741 mmHg 92%
    15:00 +18°C° 0 mm 4 mps 741 mmHg 86%
    16:00 +19°C° 0 mm 4 mps 741 mmHg 80%
    17:00 +19°C° 0 mm 4 mps 741 mmHg 74%
    18:00 +19°C° 0 mm 3 mps 741 mmHg 78%
    19:00 +18°C° 0 mm 3 mps 741 mmHg 81%
    20:00 +17°C° 0 mm 2 mps 741 mmHg 85%
    21:00 +17°C° 0 mm 2 mps 742 mmHg 89%
    22:00 +16°C° 0 mm 2 mps 742 mmHg 93%
    23:00 +15°C° 0 mm 2 mps 742 mmHg 97%

    Day after tomorrow, 25 June, Sunday

    Time Temperature Precipitation Wind Pressure Humidity
    00:00 +16°C° 0.1 mm 2 mps 742 mmHg 97%
    01:00 +16°C° 0.1 mm 2 mps 742 mmHg 97%
    02:00 +16°C° 0.1 mm 3 mps 742 mmHg 97%
    03:00 +16°C° 0.1 mm 3 mps 742 mmHg 97%
    04:00 +16°C° 0.1 mm 3 mps 742 mmHg 97%
    05:00 +16°C° 0.1 mm 3 mps 742 mmHg 97%
    06:00 +17°C° 0 mm 3 mps 742 mmHg 95%
    07:00 +17°C° 0 mm 3 mps 742 mmHg 92%
    08:00 +18°C° 0 mm 3 mps 742 mmHg 90%
    09:00 +19°C° 0.1 mm 3 mps 742 mmHg 86%
    10:00 +20°C° 0.1 mm 3 mps 742 mmHg 81%
    11:00 +21°C° 0.1 mm 3 mps 741 mmHg 76%
    12:00 +22°C° 0.3 mm 4 mps 741 mmHg 72%
    13:00 +23°C° 0.3 mm 4 mps 741 mmHg 69%
    14:00 +25°C° 0.3 mm 4 mps 741 mmHg 65%
    15:00 +25°C° 0.3 mm 4 mps 740 mmHg 66%
    16:00 +25°C° 0.3 mm 3 mps 740 mmHg 67%
    17:00 +25°C° 0.3 mm 3 mps 740 mmHg 68%
    18:00 +23°C° 0.1 mm 2 mps 740 mmHg 74%
    19:00 +21°C° 0.1 mm 2 mps 739 mmHg 80%
    20:00 +20°C° 0.1 mm 1 mps 739 mmHg 86%
    21:00 +20°C° 0.1 mm 1 mps 739 mmHg 86%
    22:00 +18°C° 0.1 mm 2 mps 739 mmHg 86%
    23:00 +18°C° 0.1 mm 2 mps 739 mmHg 86%

    26 June, Monday

    Time Temperature Precipitation Wind Pressure Humidity
    00:00 +17°C° 0.2 mm 2 mps 739 mmHg 88%
    01:00 +17°C° 0.2 mm 2 mps 738 mmHg 90%
    02:00 +17°C° 0.2 mm 3 mps 738 mmHg 92%
    03:00 +16°C° 0 mm 3 mps 739 mmHg 93%
    04:00 +16°C° 0 mm 3 mps 739 mmHg 94%
    05:00 +16°C° 0 mm 3 mps 739 mmHg 95%
    06:00 +16°C° 0 mm 3 mps 739 mmHg 87%
    07:00 +17°C° 0 mm 4 mps 739 mmHg 79%
    08:00 +17°C° 0 mm 4 mps 739 mmHg 72%
    09:00 +17°C° 0 mm 5 mps 739 mmHg 65%
    10:00 +19°C° 0 mm 6 mps 740 mmHg 59%
    11:00 +19°C° 0 mm 6 mps 740 mmHg 52%
    12:00 +20°C° 0 mm 6 mps 740 mmHg 49%
    13:00 +20°C° 0 mm 7 mps 740 mmHg 46%
    14:00 +21°C° 0 mm 7 mps 740 mmHg 42%
    15:00 +20°C° 0.1 mm 6 mps 741 mmHg 44%
    16:00 +20°C° 0.1 mm 6 mps 741 mmHg 45%
    17:00 +20°C° 0.1 mm 6 mps 741 mmHg 47%
    18:00 +17°C° 0 mm 5 mps 742 mmHg 53%
    19:00 +17°C° 0 mm 4 mps 742 mmHg 59%
    20:00 +16°C° 0 mm 3 mps 743 mmHg 65%
    21:00 +14°C° 0 mm 3 mps 743 mmHg 68%
    22:00 +13°C° 0 mm 3 mps 743 mmHg 71%
    23:00 +12°C° 0 mm 3 mps 744 mmHg 74%

    27 June, Tuesday

    Time Temperature Precipitation Wind Pressure Humidity
    00:00 +12°C° 0 mm 3 mps 744 mmHg 77%
    01:00 +11°C° 0 mm 3 mps 744 mmHg 80%
    02:00 +12°C° 0 mm 2 mps 745 mmHg 83%
    03:00 +12°C° 0 mm 2 mps 745 mmHg 85%
    04:00 +12°C° 0 mm 2 mps 745 mmHg 87%
    05:00 +10°C° 0 mm 2 mps 745 mmHg 89%
    06:00 +14°C° 0 mm 2 mps 745 mmHg 80%
    07:00 +16°C° 0 mm 3 mps 746 mmHg 72%
    08:00 +18°C° 0 mm 3 mps 746 mmHg 63%
    09:00 +19°C° 0 mm 3 mps 746 mmHg 58%
    10:00 +21°C° 0 mm 3 mps 746 mmHg 52%
    11:00 +22°C° 0 mm 4 mps 746 mmHg 47%
    12:00 +23°C° 0 mm 4 mps 746 mmHg 44%
    13:00 +25°C° 0 mm 3 mps 746 mmHg 41%
    14:00 +26°C° 0 mm 3 mps 745 mmHg 38%
    15:00 +26°C° 0 mm 3 mps 745 mmHg 39%
    16:00 +27°C° 0 mm 3 mps 745 mmHg 40%
    17:00 +27°C° 0 mm 2 mps 745 mmHg 41%
    18:00 +25°C° 0 mm 2 mps 744 mmHg 49%
    19:00 +23°C° 0 mm 2 mps 744 mmHg 58%
    20:00 +21°C° 0 mm 1 mps 744 mmHg 67%
    21:00 +19°C° 0 mm 2 mps 744 mmHg 67%
    22:00 +18°C° 0 mm 2 mps 744 mmHg 68%
    23:00 +17°C° 0 mm 2 mps 744 mmHg 69%

    28 June, Wednesday

    Time Temperature Precipitation Wind Pressure Humidity
    00:00 +17°C° 0 mm 2 mps 743 mmHg 72%
    01:00 +17°C° 0 mm 2 mps 743 mmHg 76%
    02:00 +17°C° 0 mm 2 mps 743 mmHg 80%
    03:00 +17°C° 0 mm 3 mps 742 mmHg 83%
    04:00 +18°C° 0 mm 3 mps 742 mmHg 87%
    05:00 +18°C° 0 mm 3 mps 742 mmHg 90%
    06:00 +19°C° 0.2 mm 3 mps 741 mmHg 87%
    07:00 +21°C° 0.2 mm 3 mps 741 mmHg 83%
    08:00 +24°C° 0.2 mm 3 mps 741 mmHg 80%
    09:00 +26°C° 0 mm 4 mps 741 mmHg 69%
    10:00 +28°C° 0 mm 4 mps 740 mmHg 59%
    11:00 +30°C° 0 mm 5 mps 740 mmHg 49%
    12:00 +30°C° 0.4 mm 5 mps 740 mmHg 52%
    13:00 +30°C° 0.4 mm 4 mps 739 mmHg 55%
    14:00 +32°C° 0.4 mm 4 mps 739 mmHg 57%
    15:00 +32°C° 0.2 mm 4 mps 738 mmHg 55%
    16:00 +33°C° 0.2 mm 3 mps 738 mmHg 52%
    17:00 +33°C° 0.2 mm 3 mps 738 mmHg 50%
    18:00 +30°C° 0.2 mm 3 mps 738 mmHg 58%
    19:00 +28°C° 0.2 mm 2 mps 738 mmHg 65%
    20:00 +26°C° 0.2 mm 2 mps 737 mmHg 73%
    21:00 +25°C° 0.2 mm 2 mps 737 mmHg 75%
    22:00 +25°C° 0.2 mm 2 mps 737 mmHg 77%
    23:00 +24°C° 0.2 mm 2 mps 737 mmHg 79%
    Show more